STARLINK-32153, 60330

Orbit data source: Space-Track

STARLINK-32153, 60330 is a payload satellite owned by SpaceX/Seattle (US) in LEO that was launched on Fri, 02 Aug 2024 UTC via an FALCON 9 launch vehicle from the Air Force Eastern Test Range (AFETR). Payload-class satellites include a variety of spacecraft equipped with specific instruments for various scientific and technological missions. These include communications satellites like Starlink; space stations such as the ISS; scientific satellites like the Hubble; Earth observation satellites from companies like Planet Labs, Umbra, and HawkEye 360; GPS; miniature CubeSats for education and research; and military/defense satellites.

Loading next visibility...
Identifier
60330, 2024-136B
Orbit
LEO
Country
Flag of USUS
Related business
Manufacturer
SpaceX/Seattle
Mission
Operational Commercial Communications
Bus & Motor
STARLINK V2M, Unknown motor
Mass
730 kg wet, ~700 kg dry
Launch date (UTC)
2024-08-02 (1 year ago)
Launch vehicle
FALCON 9
Launch site
Air Force Eastern Test Range (AFETR)
Object type
Payload
Rocket body
Debris
Shape & HBR
Box + 2 Pan, 17.7 m
Radar Cross Section
33.884 m², Large (>1 m²)

Expand to show TLE details & history
Last TLE update: 9 hours ago

TLE from 9 hours ago
0 STARLINK-32153
1 60330U 24136B   25299.42466808 -.00000254  00000-0  35435-5 0  9990
2 60330  53.1611 339.6238 0001226  96.6180 263.4960 15.30188168 69103
Epoch: 2025-10-26T10:11Z
TLE epoch observation values (Epoch: 2025-10-26T10:11:31.322Z)
Latitude
-0.00003°
Longitude
151.70221°
Altitude
476.245 km
Speed
7.629 km/s
True Right ascension
22h 38m 29s
True Declination
0° 00' 00"
Sunlit
Object was in full shadow at epoch
Visualization orbit readout
Latitude
Unknown
Longitude
Unknown
Altitude
Unknown
Speed
Unknown
Apparent Right ascension
Unknown
Apparent Declination
Unknown
Sunlit
N/A
Visualization observer readout
Local Sidereal Time
14:53:04
Azimuth
Unknown
Elevation
Unknown
Doppler factor
Unknown
Orbital elements
Apogee altitude
476.347 km
Perigee altitude
474.666 km
Semi-major axis
6,853.644 km
Eccentricity
0.00012
Inclination
53.1611°
RAAN
339.6238°
Arg. of periapsis
96.618°
True anomaly
263.48204°
Mean anomaly
263.496°
Eccentric anomaly
263.48902°
Mean motion
3.82526 °/min
Orbital period
94.11 mins
BSTAR
0.0000035435
Loading maneuver chart data...
Computing Atmospheric mass density...
Loading historical data...
Loading historical data...
Loading historical data...
Loading historical data...
Loading historical data...
Loading historical data...
Loading historical data...

Documentation

Showing up to 5 results
|